Tracking 27122 objects as of 25-Mar-2023
HD Live streaming from Space Station
objects crossing your sky now

STARLINK-2540

Track STARLINK-2540 now!
10-day predictions
STARLINK-2540 is classified as:


NORAD ID: 48290
Int'l Code: 2021-036Q
Perigee: 553.8 km
Apogee: 554.5 km
Inclination: 53.1 °
Period: 95.6 minutes
Semi major axis: 6925 km
RCS: Unknown
Launch date: April 29, 2021
Source: United States (US)
Launch site: AIR FORCE EASTERN TEST RANGE (AFETR)
Your satellite tracking list
Your tracking list is empty




NASA's NSSDC Master Catalog

Two Line Element Set (TLE):
1 48290U 21036Q   23083.64888770  .00042956  00000-0  28808-2 0  9993
2 48290  53.0537 254.5968 0000526 100.6622 259.4427 15.06456213105953
Source of the keplerian elements: AFSPC